| time (UTC) | temp F | wind direction | speed MPH | gust MPH | rain 1hr in | rain 24hr in | rain mn in | humidity % | barometer mb |
| 20260503213528 | 49 | 0 | 0.0 | 0.0 | 0.00 | 0.51 | 0.19 | 79 | 1014.2 |
| 20260503213037 | 49 | 0 | 0.0 | 0.0 | 0.00 | 0.51 | 0.19 | 79 | 1014.1 |
| 20260503212532 | 49 | 0 | 0.0 | 0.0 | 0.00 | 0.51 | 0.19 | 79 | 1014.2 |
| 20260503212032 | 49 | 0 | 0.0 | 0.0 | 0.00 | 0.51 | 0.19 | 79 | 1014.2 |
| 20260503211537 | 49 | 0 | 0.0 | 0.0 | 0.00 | 0.51 | 0.19 | 78 | 1014.2 |
| 20260503211031 | 49 | 0 | 0.0 | 0.0 | 0.00 | 0.51 | 0.19 | 78 | 1014.2 |
| 20260503210527 | 49 | 0 | 0.0 | 0.0 | 0.00 | 0.51 | 0.19 | 78 | 1014.2 |
| 20260503210045 | 49 | 0 | 0.0 | 0.0 | 0.00 | 0.51 | 0.19 | 78 | 1014.2 |
| 20260503205531 | 49 | 0 | 0.0 | 1.0 | 0.00 | 0.51 | 0.19 | 78 | 1014.2 |
| 20260503205031 | 49 | 0 | 0.0 | 1.0 | 0.00 | 0.51 | 0.19 | 77 | 1014.2 |
| 20260503204543 | 50 | 0 | 0.0 | 1.0 | 0.00 | 0.51 | 0.19 | 77 | 1014.1 |
| 20260503204031 | 50 | 0 | 0.0 | 1.0 | 0.00 | 0.51 | 0.19 | 77 | 1014.2 |
| 20260503203531 | 50 | 0 | 0.0 | 0.0 | 0.00 | 0.51 | 0.19 | 77 | 1014.1 |
| 20260503203052 | 50 | 0 | 0.0 | 0.0 | 0.00 | 0.51 | 0.19 | 76 | 1014.1 |
| 20260503202528 | 50 | 0 | 0.0 | 1.0 | 0.00 | 0.51 | 0.19 | 76 | 1014.2 |
| 20260503202028 | 50 | 0 | 0.0 | 2.0 | 0.00 | 0.51 | 0.19 | 76 | 1014.1 |
| 20260503201545 | 50 | 0 | 0.0 | 2.0 | 0.00 | 0.51 | 0.19 | 76 | 1014.0 |
| 20260503201031 | 50 | 98 | 0.0 | 0.0 | 0.00 | 0.51 | 0.19 | 76 | 1013.9 |
| 20260503200531 | 50 | 0 | 0.0 | 2.0 | 0.00 | 0.51 | 0.19 | 75 | 1013.8 |
| 20260503200037 | 50 | 0 | 0.0 | 2.0 | 0.00 | 0.51 | 0.19 | 75 | 1013.8 |
| 20260503195531 | 50 | 0 | 0.0 | 3.0 | 0.00 | 0.51 | 0.19 | 75 | 1013.8 |
| 20260503195031 | 50 | 0 | 0.0 | 3.0 | 0.00 | 0.51 | 0.19 | 74 | 1013.7 |
| 20260503194545 | 50 | 86 | 1.0 | 3.0 | 0.00 | 0.51 | 0.19 | 74 | 1013.7 |
| 20260503194031 | 50 | 50 | 1.0 | 4.0 | 0.00 | 0.51 | 0.19 | 74 | 1013.6 |
| 20260503193531 | 51 | 66 | 1.0 | 4.0 | 0.00 | 0.51 | 0.19 | 74 | 1013.6 |
| 20260503193043 | 51 | 63 | 1.0 | 4.0 | 0.00 | 0.51 | 0.19 | 73 | 1013.5 |
| 20260503192531 | 51 | 68 | 0.0 | 4.0 | 0.00 | 0.51 | 0.19 | 74 | 1013.6 |
| 20260503192033 | 51 | 92 | 2.0 | 4.0 | 0.00 | 0.51 | 0.19 | 73 | 1013.4 |
| 20260503191546 | 51 | 82 | 2.0 | 6.0 | 0.00 | 0.51 | 0.19 | 73 | 1013.5 |
| 20260503191031 | 51 | 86 | 2.0 | 6.0 | 0.00 | 0.51 | 0.19 | 73 | 1013.5 |
| 20260503190533 | 51 | 126 | 3.0 | 6.0 | 0.00 | 0.51 | 0.19 | 73 | 1013.4 |
| 20260503190042 | 51 | 119 | 2.0 | 6.0 | 0.00 | 0.51 | 0.19 | 73 | 1013.5 |
| 20260503185530 | 51 | 92 | 2.0 | 4.0 | 0.00 | 0.51 | 0.19 | 73 | 1013.4 |
| 20260503185034 | 51 | 87 | 2.0 | 6.0 | 0.00 | 0.51 | 0.19 | 73 | 1013.5 |
| 20260503184537 | 52 | 58 | 2.0 | 6.0 | 0.00 | 0.51 | 0.19 | 73 | 1013.5 |
| 20260503184030 | 52 | 104 | 2.0 | 7.0 | 0.00 | 0.51 | 0.19 | 73 | 1013.4 |
| 20260503183534 | 52 | 84 | 2.0 | 7.0 | 0.00 | 0.51 | 0.19 | 72 | 1013.4 |
| 20260503183040 | 52 | 90 | 2.0 | 6.0 | 0.00 | 0.51 | 0.19 | 72 | 1013.2 |
| 20260503182531 | 52 | 67 | 2.0 | 6.0 | 0.00 | 0.51 | 0.19 | 72 | 1013.2 |
| 20260503182031 | 53 | 98 | 1.0 | 5.0 | 0.00 | 0.51 | 0.19 | 73 | 1013.2 |
| 20260503181541 | 52 | 67 | 2.0 | 5.0 | 0.00 | 0.51 | 0.19 | 73 | 1013.3 |
| 20260503181031 | 52 | 91 | 2.0 | 6.0 | 0.00 | 0.51 | 0.19 | 73 | 1013.2 |
| 20260503180531 | 52 | 75 | 2.0 | 7.0 | 0.00 | 0.51 | 0.19 | 73 | 1013.2 |
| 20260503180053 | 52 | 70 | 2.0 | 7.0 | 0.00 | 0.51 | 0.19 | 73 | 1013.3 |
| 20260503175530 | 52 | 77 | 3.0 | 6.0 | 0.00 | 0.51 | 0.19 | 73 | 1013.2 |
| 20260503175030 | 52 | 89 | 3.0 | 7.0 | 0.00 | 0.51 | 0.19 | 73 | 1013.3 |
| 20260503174546 | 52 | 64 | 3.0 | 7.0 | 0.00 | 0.51 | 0.19 | 74 | 1013.3 |
| 20260503174030 | 52 | 77 | 4.0 | 8.0 | 0.00 | 0.51 | 0.19 | 74 | 1013.3 |
| 20260503173530 | 52 | 74 | 4.0 | 8.0 | 0.00 | 0.51 | 0.19 | 73 | 1013.3 |
| 20260503173040 | 52 | 75 | 4.0 | 8.0 | 0.00 | 0.51 | 0.19 | 73 | 1013.3 |
| 20260503172529 | 52 | 101 | 3.0 | 7.0 | 0.00 | 0.51 | 0.19 | 73 | 1013.2 |
| 20260503172030 | 52 | 79 | 4.0 | 8.0 | 0.00 | 0.51 | 0.19 | 72 | 1013.2 |
| 20260503171539 | 53 | 72 | 4.0 | 8.0 | 0.00 | 0.51 | 0.19 | 73 | 1013.3 |
| 20260503171031 | 53 | 77 | 4.0 | 8.0 | 0.00 | 0.51 | 0.19 | 72 | 1013.2 |
| 20260503170531 | 53 | 91 | 5.0 | 8.0 | 0.00 | 0.51 | 0.19 | 71 | 1013.3 |
| 20260503150530 | 52 | 88 | 4.0 | 9.0 | 0.00 | 0.51 | 0.19 | 73 | 1013.5 |
| 20260503131031 | 50 | 79 | 6.0 | 12.0 | 0.00 | 0.51 | 0.19 | 78 | 1014.0 |
| 20260503130531 | 50 | 131 | 4.0 | 9.0 | 0.00 | 0.51 | 0.19 | 78 | 1014.1 |
| 20260503081550 | 47 | 38 | 3.0 | 9.0 | 0.00 | 0.51 | 0.19 | 86 | 1013.8 |
| 20260503081034 | 47 | 79 | 3.0 | 9.0 | 0.00 | 0.51 | 0.19 | 86 | 1013.6 |
| 20260503080532 | 47 | 51 | 2.0 | 9.0 | 0.00 | 0.51 | 0.19 | 86 | 1013.7 |
| 20260503072532 | 47 | 75 | 5.0 | 10.0 | 0.00 | 0.51 | 0.19 | 86 | 1013.5 |
| 20260503072031 | 47 | 56 | 3.0 | 12.0 | 0.00 | 0.51 | 0.19 | 86 | 1013.5 |
| 20260503071543 | 47 | 62 | 5.0 | 12.0 | 0.00 | 0.51 | 0.19 | 86 | 1013.6 |
| 20260503071031 | 47 | 79 | 4.0 | 10.0 | 0.00 | 0.51 | 0.19 | 86 | 1013.4 |
| 20260503070531 | 47 | 91 | 4.0 | 10.0 | 0.00 | 0.51 | 0.19 | 86 | 1013.5 |
| 20260503060108 | 47 | 73 | 1.0 | 8.0 | 0.00 | 0.51 | 0.19 | 86 | 1013.2 |
| 20260503055033 | 47 | 72 | 4.0 | 8.0 | 0.01 | 0.51 | 0.19 | 86 | 1013.2 |
| 20260503054555 | 47 | 85 | 2.0 | 10.0 | 0.01 | 0.51 | 0.19 | 86 | 1013.1 |
| 20260503054032 | 47 | 79 | 3.0 | 10.0 | 0.01 | 0.51 | 0.19 | 86 | 1013.2 |
| 20260503053532 | 47 | 48 | 3.0 | 10.0 | 0.02 | 0.51 | 0.19 | 86 | 1013.0 |
| 20260503053041 | 47 | 76 | 4.0 | 10.0 | 0.02 | 0.51 | 0.19 | 86 | 1013.1 |
| 20260503052534 | 47 | 75 | 3.0 | 10.0 | 0.01 | 0.50 | 0.18 | 86 | 1013.1 |
| 20260503052032 | 47 | 95 | 3.0 | 9.0 | 0.01 | 0.50 | 0.18 | 86 | 1013.1 |
| 20260503051536 | 47 | 76 | 4.0 | 9.0 | 0.02 | 0.50 | 0.18 | 86 | 1013.2 |
| 20260503051031 | 47 | 64 | 4.0 | 8.0 | 0.02 | 0.50 | 0.18 | 86 | 1013.1 |
| 20260503050531 | 47 | 57 | 4.0 | 8.0 | 0.03 | 0.50 | 0.18 | 86 | 1013.1 |
| 20260503050048 | 47 | 86 | 4.0 | 8.0 | 0.03 | 0.50 | 0.18 | 86 | 1013.2 |
| 20260503045532 | 47 | 63 | 2.0 | 8.0 | 0.03 | 0.50 | 0.18 | 86 | 1013.1 |
| 20260503045032 | 47 | 66 | 2.0 | 7.0 | 0.03 | 0.49 | 0.18 | 86 | 1013.1 |
| 20260503044542 | 48 | 77 | 2.0 | 7.0 | 0.03 | 0.49 | 0.18 | 86 | 1013.2 |
| 20260503044031 | 47 | 63 | 3.0 | 11.0 | 0.03 | 0.49 | 0.18 | 86 | 1013.2 |
| 20260503043531 | 48 | 105 | 4.0 | 11.0 | 0.03 | 0.48 | 0.17 | 86 | 1013.2 |
| 20260503043039 | 48 | 79 | 3.0 | 8.0 | 0.03 | 0.48 | 0.17 | 86 | 1013.2 |
| 20260503042531 | 48 | 115 | 3.0 | 8.0 | 0.03 | 0.48 | 0.17 | 86 | 1013.2 |
| 20260503042031 | 48 | 64 | 2.0 | 8.0 | 0.03 | 0.48 | 0.17 | 86 | 1013.1 |
| 20260503041545 | 48 | 105 | 3.0 | 9.0 | 0.03 | 0.48 | 0.16 | 86 | 1013.2 |
| 20260503041033 | 48 | 37 | 5.0 | 9.0 | 0.03 | 0.48 | 0.16 | 86 | 1013.3 |
| 20260503040531 | 48 | 72 | 1.0 | 9.0 | 0.03 | 0.47 | 0.15 | 86 | 1013.4 |
| 20260503040039 | 48 | 87 | 3.0 | 9.0 | 0.04 | 0.47 | 0.15 | 86 | 1013.3 |
| 20260503035532 | 48 | 69 | 4.0 | 9.0 | 0.03 | 0.46 | 0.14 | 86 | 1013.3 |
| 20260503035032 | 48 | 96 | 2.0 | 10.0 | 0.04 | 0.46 | 0.14 | 86 | 1013.2 |
| 20260503034535 | 48 | 90 | 3.0 | 10.0 | 0.04 | 0.46 | 0.14 | 86 | 1013.2 |
| 20260503034032 | 48 | 58 | 3.0 | 10.0 | 0.04 | 0.45 | 0.14 | 86 | 1013.3 |
| 20260503033535 | 48 | 61 | 3.0 | 5.0 | 0.04 | 0.45 | 0.14 | 86 | 1013.2 |
| 20260503033043 | 48 | 103 | 2.0 | 8.0 | 0.03 | 0.44 | 0.13 | 86 | 1013.3 |
| 20260503032531 | 48 | 75 | 2.0 | 10.0 | 0.03 | 0.44 | 0.13 | 86 | 1013.4 |
| 20260503032031 | 48 | 84 | 5.0 | 10.0 | 0.03 | 0.44 | 0.13 | 86 | 1013.3 |
| 20260503031537 | 48 | 72 | 5.0 | 8.0 | 0.03 | 0.44 | 0.12 | 86 | 1013.3 |
| 20260503031031 | 48 | 122 | 4.0 | 7.0 | 0.03 | 0.44 | 0.12 | 86 | 1013.2 |
| 20260503030534 | 48 | 96 | 1.0 | 8.0 | 0.03 | 0.43 | 0.11 | 86 | 1013.3 |
| 20260503030045 | 48 | 68 | 2.0 | 11.0 | 0.02 | 0.42 | 0.11 | 86 | 1013.3 |
| 20260503025531 | 48 | 70 | 5.0 | 11.0 | 0.02 | 0.42 | 0.11 | 86 | 1013.2 |
| 20260503025031 | 48 | 41 | 4.0 | 8.0 | 0.01 | 0.41 | 0.10 | 86 | 1013.3 |
| 20260503024537 | 48 | 60 | 3.0 | 7.0 | 0.02 | 0.41 | 0.10 | 86 | 1013.2 |
| 20260503024032 | 48 | 32 | 3.0 | 7.0 | 0.01 | 0.40 | 0.09 | 86 | 1013.2 |
| 20260503023531 | 48 | 65 | 2.0 | 6.0 | 0.01 | 0.40 | 0.09 | 86 | 1013.2 |
| 20260503023036 | 48 | 110 | 2.0 | 6.0 | 0.02 | 0.40 | 0.09 | 86 | 1013.2 |
| 20260503022531 | 48 | 60 | 2.0 | 7.0 | 0.02 | 0.40 | 0.09 | 86 | 1013.2 |
| 20260503022031 | 48 | 50 | 3.0 | 7.0 | 0.03 | 0.40 | 0.09 | 86 | 1013.3 |
| 20260503021535 | 49 | 86 | 1.0 | 6.0 | 0.03 | 0.40 | 0.09 | 86 | 1013.3 |
| 20260503021031 | 49 | 63 | 3.0 | 6.0 | 0.03 | 0.40 | 0.09 | 86 | 1013.2 |
| 20260503020531 | 49 | 81 | 2.0 | 7.0 | 0.03 | 0.40 | 0.08 | 86 | 1013.2 |
| 20260503020042 | 49 | 70 | 3.0 | 7.0 | 0.03 | 0.40 | 0.08 | 86 | 1013.3 |
| 20260503015531 | 49 | 79 | 4.0 | 8.0 | 0.04 | 0.40 | 0.08 | 86 | 1013.2 |
| 20260503015032 | 49 | 69 | 4.0 | 10.0 | 0.04 | 0.40 | 0.08 | 86 | 1013.2 |
| 20260503014541 | 49 | 95 | 5.0 | 10.0 | 0.03 | 0.39 | 0.07 | 86 | 1013.2 |
| 20260503014031 | 49 | 63 | 3.0 | 10.0 | 0.04 | 0.39 | 0.07 | 86 | 1013.3 |
| 20260503013531 | 48 | 124 | 6.0 | 12.0 | 0.03 | 0.38 | 0.07 | 86 | 1013.3 |
| 20260503013038 | 48 | 107 | 4.0 | 12.0 | 0.03 | 0.38 | 0.07 | 86 | 1013.3 |
| 20260503012532 | 48 | 36 | 6.0 | 10.0 | 0.04 | 0.38 | 0.07 | 86 | 1013.4 |
| 20260503012031 | 48 | 78 | 4.0 | 13.0 | 0.03 | 0.37 | 0.06 | 86 | 1013.4 |
| 20260503011534 | 48 | 50 | 6.0 | 13.0 | 0.03 | 0.37 | 0.06 | 86 | 1013.5 |
| 20260503011031 | 48 | 63 | 5.0 | 12.0 | 0.03 | 0.37 | 0.06 | 86 | 1013.4 |
| 20260503010535 | 49 | 82 | 4.0 | 7.0 | 0.03 | 0.37 | 0.05 | 86 | 1013.5 |
| 20260503010037 | 49 | 91 | 4.0 | 11.0 | 0.03 | 0.36 | 0.04 | 86 | 1013.5 |
| 20260503005531 | 49 | 65 | 6.0 | 11.0 | 0.02 | 0.35 | 0.03 | 86 | 1013.4 |
| 20260503005033 | 49 | 105 | 6.0 | 12.0 | 0.02 | 0.35 | 0.03 | 86 | 1013.5 |
| 20260503004539 | 49 | 89 | 5.0 | 12.0 | 0.01 | 0.34 | 0.03 | 86 | 1013.5 |
| 20260503004033 | 49 | 98 | 6.0 | 11.0 | 0.02 | 0.34 | 0.03 | 86 | 1013.5 |
| 20260503003531 | 49 | 70 | 6.0 | 11.0 | 0.02 | 0.34 | 0.03 | 86 | 1013.4 |
| 20260503003040 | 49 | 79 | 6.0 | 10.0 | 0.03 | 0.34 | 0.03 | 86 | 1013.5 |
| 20260503002531 | 49 | 56 | 5.0 | 9.0 | 0.02 | 0.33 | 0.02 | 86 | 1013.5 |
| 20260503002031 | 49 | 68 | 4.0 | 9.0 | 0.02 | 0.33 | 0.02 | 86 | 1013.6 |
| 20260503001538 | 49 | 121 | 2.0 | 10.0 | 0.02 | 0.33 | 0.02 | 86 | 1013.6 |
| 20260503001031 | 49 | 68 | 4.0 | 11.0 | 0.02 | 0.33 | 0.02 | 85 | 1013.7 |
| 20260503000531 | 49 | 73 | 6.0 | 11.0 | 0.02 | 0.33 | 0.02 | 85 | 1013.7 |
| 20260503000047 | 49 | 70 | 6.0 | 11.0 | 0.01 | 0.33 | 0.01 | 85 | 1013.6 |
| 20260502235531 | 49 | 70 | 5.0 | 15.0 | 0.01 | 0.33 | 0.01 | 85 | 1013.6 |
| 20260502235031 | 49 | 76 | 5.0 | 15.0 | 0.01 | 0.33 | 0.01 | 85 | 1013.7 |
| 20260502234548 | 49 | 63 | 9.0 | 15.0 | 0.01 | 0.33 | 0.01 | 85 | 1013.7 |
| 20260502234032 | 49 | 79 | 5.0 | 13.0 | 0.00 | 0.32 | 0.00 | 85 | 1013.6 |
| 20260502233531 | 49 | 73 | 4.0 | 13.0 | 0.00 | 0.32 | 0.00 | 85 | 1013.7 |
| 20260502233040 | 49 | 63 | 6.0 | 13.0 | 0.00 | 0.31 | 0.00 | 85 | 1013.7 |
| 20260502232531 | 49 | 60 | 5.0 | 11.0 | 0.00 | 0.31 | 0.00 | 85 | 1013.8 |
| 20260502232031 | 49 | 75 | 4.0 | 9.0 | 0.01 | 0.31 | 0.00 | 85 | 1013.9 |
| 20260502231540 | 49 | 72 | 4.0 | 9.0 | 0.04 | 0.31 | 0.00 | 85 | 1013.7 |
| 20260502231031 | 49 | 91 | 2.0 | 7.0 | 0.07 | 0.31 | 0.00 | 85 | 1013.6 |
| 20260502230531 | 49 | 60 | 3.0 | 8.0 | 0.11 | 0.31 | 0.00 | 85 | 1013.7 |
| 20260502230043 | 49 | 64 | 4.0 | 8.0 | 0.15 | 0.31 | 0.00 | 85 | 1013.7 |
| 20260502225532 | 49 | 87 | 4.0 | 7.0 | 0.21 | 0.31 | 0.31 | 85 | 1013.7 |
| 20260502225031 | 49 | 67 | 3.0 | 9.0 | 0.24 | 0.31 | 0.31 | 85 | 1013.8 |
| 20260502224544 | 49 | 77 | 5.0 | 9.0 | 0.26 | 0.31 | 0.31 | 85 | 1013.7 |
| 20260502224031 | 49 | 68 | 3.0 | 9.0 | 0.27 | 0.31 | 0.31 | 85 | 1013.6 |
| 20260502223531 | 49 | 99 | 5.0 | 9.0 | 0.28 | 0.31 | 0.31 | 85 | 1013.7 |
| 20260502223047 | 49 | 82 | 4.0 | 8.0 | 0.27 | 0.30 | 0.30 | 84 | 1013.7 |
| 20260502222531 | 49 | 53 | 3.0 | 8.0 | 0.28 | 0.30 | 0.30 | 84 | 1013.8 |
| 20260502222031 | 49 | 71 | 2.0 | 9.0 | 0.29 | 0.29 | 0.29 | 84 | 1013.8 |
| 20260502221544 | 49 | 68 | 2.0 | 9.0 | 0.26 | 0.26 | 0.26 | 84 | 1013.8 |
| 20260502221031 | 49 | 65 | 5.0 | 9.0 | 0.23 | 0.23 | 0.23 | 83 | 1013.8 |
| 20260502220531 | 49 | 68 | 4.0 | 8.0 | 0.19 | 0.19 | 0.19 | 83 | 1013.8 |
| 20260502220042 | 50 | 94 | 3.0 | 8.0 | 0.14 | 0.14 | 0.14 | 83 | 1013.8 |
| 20260502215531 | 50 | 70 | 2.0 | 7.0 | 0.10 | 0.10 | 0.10 | 83 | 1013.9 |
| 20260502215033 | 50 | 77 | 4.0 | 8.0 | 0.06 | 0.06 | 0.06 | 82 | 1013.8 |
| 20260502214544 | 50 | 63 | 5.0 | 10.0 | 0.04 | 0.04 | 0.04 | 82 | 1013.8 |
| 20260502214031 | 50 | 78 | 4.0 | 11.0 | 0.03 | 0.03 | 0.03 | 82 | 1013.8 |